星链-5420 (STARLINK-5420 )

导读

STARLINK-5420是美国太空探索技术公司(SpaceX)星链(Starlink)卫星互联网项目中的一颗卫星,于北京时间2022年12月17日发射入轨,属于星链低轨卫星星座组网卫星,主要用于为全球提供高速互联网服务,目前已在既定轨道运行三年多,参与星座的通信服务组网。

Basic Information
目录编号:
54798
目录名称:
STARLINK-5420
国际标识:
2022-175AS
轨道中心:
EARTH
卫星名称:
星链-5420
卫星全名:
星链-5420 (STARLINK-5420 )
卫星状态:
在轨 (已飞行1357 天)
发射日期:
2022-12-17 UTC
国别 :
美国 (US)
星等 :
--
Orbit Information
数据来源 国际轨道数据
星历时间: 2026-09-04T04:00:02+0800
10小时前
查看轨道信息
半长轴: 6837.83km
偏心率: 0.0000996
轨道倾角: 53.160°
近地点辐角 71.397°
升交点赤经 295.859°
平近点角 27.667°
近地点: 459.011km
远地点: 460.375km
周期: 93.786分钟
每日圈数: 15.354135
Detailed Information
固有亮度:
5
最大亮度:
2.5
卫星平台:
Starlink v1.5
覆盖范围:
全球
运营商:
太空探索技术公司
运营商所在国:
美国
制造商(研发单位):
太空探索技术公司
制造商所在国:
美国
使用方式:
暂无
Satellite Introduction
星链(Starlink)计划是由太空探索技术公司(SpaceX)提出的一个巨型低轨卫星互联网星座项目,计划在2019年至2024年间在太空搭建由约1.2万颗卫星组成的“星链”网络,其中1584颗将部署在地球上空550千米处的近地轨道,并从2020年开始工作。该卫星仍在工作。
2D Orbit Map
3D Orbit Map
Orbit Altitude Analysis Chart
Orbit Inclination Analysis Chart
Orbit Comprehensive Analysis Chart
View Comprehensive Chart
Conjunction Data List
Event ID Objects TCA Miss Dist (km) Collision Risk Probability Collision Risk Index (CRI) Action
CDM_260829-181905-237105-479821
2026-08-29T
18:19:43+0000
0.187 km
中距离
7.944482E-4 高风险 0.93
CDM_260829-185804-976305-479821
2026-08-29T
18:58:10+0000
1.433 km
极远距离
6.099211E-6 低风险 0.51
CDM_260829-195305-237105-479821
2026-08-29T
19:53:40+0000
1.831 km
极远距离
3.184885E-6 低风险 0.45
CDM_260829-212705-237105-479821
2026-08-29T
21:27:38+0000
1.947 km
极远距离
2.70014E-6 低风险 0.44
CDM_260903-201305-081805-479821
2026-09-03T
20:13:38+0000
2.653 km
极远距离
1.379478E-6 低风险 0.38
CDM_260827-214005-479805-724721
2026-08-27T
21:40:36+0000
2.629 km
极远距离
1.372331E-6 低风险 0.38
CDM_260903-192705-479806-231621
2026-09-03T
19:27:27+0000
2.777 km
极远距离
1.295244E-6 低风险 0.37
CDM_260903-171605-479806-475521
2026-09-03T
17:16:54+0000
2.870 km
极远距离
1.261685E-6 低风险 0.37
CDM_260903-130405-479806-664121
2026-09-03T
13:04:35+0000
2.855 km
极远距离
1.076504E-6 低风险 0.36